User: anonymous   Login
Location: Unspecified
(0.0000°N, 0.0000°E)
Time: 07:21:05
(UTC+00:00)
Language:

VENTA 1 - Orbit

View from above orbital plane
View from above orbital plane
View from above satellite
View from above satellite

Ground track
Ground track

The orbit is defined by the following mean orbital elements,

1 42791U 17036AC  24004.55647480  .15932835  20937-5  23518-3 0  9993
2 42791  97.0833  50.4615 0004059 337.7263  22.3865 16.48851198364522
Epoch (UTC): 04 January 2024 13:21:19
Eccentricity: 0.0004059
inclination: 97.0833°
perigee height: 140 km
apogee height: 145 km
right ascension of ascending node: 50.4615°
argument of perigee: 337.7263°
revolutions per day: 16.48851198
mean anomaly at epoch: 22.3865°

The dashed part of the orbit path shows where the satellite is in the earth's shadow,  

DLR